When you browse on this site, cookies collect data to enhance your experience and personalize the content and advertising you see.
Visit our Privacy Policy to learn more. By continuing to use the site, you agree to this use of cookies and data.
  • In Sweden
  • List of Countries
  • For 7 days
  • Water Temperature
  • Satellite Maps
  • Weather Map
  • Weather Widgets
  • user-avatar
    Login

    Hourly Weather Swansea

    Today, 19 January, Saturday

    Time Temperature Precipitation Wind Pressure Humidity
    00:00 +5°C° 0.1 mm 4 mps 752 mmHg 93%
    01:00 +5°C° 0 mm 4 mps 752 mmHg 94%
    02:00 +5°C° 0 mm 4 mps 752 mmHg 94%
    03:00 +5°C° 0 mm 4 mps 751 mmHg 94%
    04:00 +5°C° 0.2 mm 4 mps 751 mmHg 94%
    05:00 +6°C° 0.2 mm 4 mps 751 mmHg 94%
    06:00 +6°C° 0.2 mm 4 mps 751 mmHg 95%
    07:00 +6°C° 0.2 mm 4 mps 751 mmHg 95%
    08:00 +6°C° 0.2 mm 4 mps 751 mmHg 95%
    09:00 +7°C° 0.2 mm 3 mps 751 mmHg 95%
    10:00 +8°C° 0.1 mm 3 mps 751 mmHg 93%
    11:00 +8°C° 0.1 mm 3 mps 751 mmHg 91%
    12:00 +9°C° 0.1 mm 2 mps 751 mmHg 89%
    13:00 +9°C° 0.2 mm 2 mps 751 mmHg 89%
    14:00 +10°C° 0.2 mm 1 mps 751 mmHg 88%
    15:00 +10°C° 0.2 mm 1 mps 751 mmHg 88%
    16:00 +9°C° 0.1 mm 1 mps 752 mmHg 90%
    17:00 +8°C° 0.1 mm 1 mps 752 mmHg 91%
    18:00 +7°C° 0.1 mm 1 mps 752 mmHg 93%
    19:00 +7°C° 0 mm 1 mps 753 mmHg 94%
    20:00 +6°C° 0 mm 2 mps 753 mmHg 94%
    21:00 +5°C° 0 mm 2 mps 753 mmHg 95%
    22:00 +5°C° 0 mm 2 mps 754 mmHg 95%
    23:00 +5°C° 0 mm 2 mps 754 mmHg 95%

    Tomorrow, 20 January, Sunday

    Time Temperature Precipitation Wind Pressure Humidity
    00:00 +5°C° 0 mm 2 mps 755 mmHg 95%
    01:00 +6°C° 0 mm 2 mps 755 mmHg 95%
    02:00 +6°C° 0 mm 2 mps 756 mmHg 95%
    03:00 +6°C° 0 mm 2 mps 756 mmHg 95%
    04:00 +5°C° 0 mm 2 mps 757 mmHg 95%
    05:00 +5°C° 0 mm 2 mps 757 mmHg 95%
    06:00 +5°C° 0 mm 2 mps 758 mmHg 95%
    07:00 +5°C° 0 mm 2 mps 759 mmHg 94%
    08:00 +5°C° 0 mm 2 mps 760 mmHg 94%
    09:00 +4°C° 0 mm 3 mps 761 mmHg 93%
    10:00 +4°C° 0 mm 3 mps 761 mmHg 91%
    11:00 +5°C° 0 mm 3 mps 762 mmHg 88%
    12:00 +7°C° 0 mm 3 mps 763 mmHg 85%
    13:00 +7°C° 0 mm 3 mps 763 mmHg 84%
    14:00 +6°C° 0 mm 4 mps 763 mmHg 83%
    15:00 +6°C° 0 mm 4 mps 764 mmHg 82%
    16:00 +5°C° 0 mm 3 mps 764 mmHg 84%
    17:00 +4°C° 0 mm 3 mps 765 mmHg 87%
    18:00 +4°C° 0 mm 2 mps 766 mmHg 90%
    19:00 +4°C° 0 mm 2 mps 766 mmHg 90%
    20:00 +4°C° 0 mm 2 mps 767 mmHg 90%
    21:00 +5°C° 0 mm 2 mps 767 mmHg 91%
    22:00 +4°C° 0 mm 2 mps 768 mmHg 91%
    23:00 +3°C° 0 mm 3 mps 768 mmHg 92%

    Day after tomorrow, 21 January, Monday

    Time Temperature Precipitation Wind Pressure Humidity
    00:00 +3°C° 0 mm 3 mps 768 mmHg 92%
    01:00 +2°C° 0 mm 3 mps 768 mmHg 92%
    02:00 +2°C° 0 mm 3 mps 768 mmHg 91%
    03:00 +2°C° 0 mm 3 mps 768 mmHg 91%
    04:00 +3°C° 0 mm 2 mps 768 mmHg 90%
    05:00 +2°C° 0 mm 2 mps 768 mmHg 90%
    06:00 +2°C° 0 mm 2 mps 768 mmHg 89%
    07:00 +3°C° 0 mm 1 mps 768 mmHg 88%
    08:00 +3°C° 0 mm 1 mps 768 mmHg 87%
    09:00 +2°C° 0 mm 0 mps 768 mmHg 87%
    10:00 +4°C° 0 mm 1 mps 767 mmHg 83%
    11:00 +5°C° 0 mm 2 mps 766 mmHg 79%
    12:00 +5°C° 0 mm 3 mps 766 mmHg 75%
    13:00 +5°C° 0 mm 5 mps 765 mmHg 76%
    14:00 +4°C° 0 mm 6 mps 764 mmHg 77%
    15:00 +4°C° 0 mm 7 mps 762 mmHg 78%
    16:00 +4°C° 0.1 mm 8 mps 761 mmHg 80%
    17:00 +3°C° 0.1 mm 9 mps 760 mmHg 82%
    18:00 +3°C° 0.1 mm 9 mps 758 mmHg 83%
    19:00 +4°C° 1.4 mm 11 mps 757 mmHg 86%
    20:00 +4°C° 1.4 mm 12 mps 756 mmHg 88%
    21:00 +4°C° 1.4 mm 13 mps 755 mmHg 90%
    22:00 +3°C° 1.6 mm 11 mps 754 mmHg 86%
    23:00 +2°C° 1.6 mm 9 mps 754 mmHg 82%

    22 January, Tuesday

    Time Temperature Precipitation Wind Pressure Humidity
    00:00 0°C° 1.6 mm 8 mps 753 mmHg 78%
    01:00 0°C° 0 mm 8 mps 753 mmHg 78%
    02:00 0°C° 0 mm 8 mps 753 mmHg 78%
    03:00 -1°C° 0 mm 8 mps 753 mmHg 78%
    04:00 -1°C° 0.1 mm 8 mps 752 mmHg 78%
    05:00 -1°C° 0.1 mm 8 mps 752 mmHg 79%
    06:00 -1°C° 0.1 mm 8 mps 752 mmHg 79%
    07:00 -1°C° 0.2 mm 8 mps 751 mmHg 79%
    08:00 -1°C° 0.2 mm 8 mps 751 mmHg 79%
    09:00 -1°C° 0.2 mm 8 mps 751 mmHg 79%
    10:00 -1°C° 0.1 mm 9 mps 751 mmHg 76%
    11:00 0°C° 0.1 mm 9 mps 751 mmHg 73%
    12:00 0°C° 0.1 mm 10 mps 751 mmHg 70%
    13:00 0°C° 0.2 mm 10 mps 750 mmHg 70%
    14:00 0°C° 0.2 mm 10 mps 750 mmHg 70%
    15:00 -2°C° 0.2 mm 10 mps 750 mmHg 69%
    16:00 -1°C° 0.1 mm 9 mps 750 mmHg 72%
    17:00 -2°C° 0.1 mm 8 mps 750 mmHg 74%
    18:00 -2°C° 0.1 mm 8 mps 750 mmHg 77%
    19:00 -2°C° 0.1 mm 8 mps 750 mmHg 78%
    20:00 -2°C° 0.1 mm 7 mps 750 mmHg 78%
    21:00 -2°C° 0.1 mm 7 mps 750 mmHg 79%
    22:00 -2°C° 0.1 mm 7 mps 750 mmHg 80%
    23:00 -2°C° 0.1 mm 7 mps 750 mmHg 80%

    23 January, Wednesday

    Time Temperature Precipitation Wind Pressure Humidity
    00:00 -2°C° 0.1 mm 7 mps 750 mmHg 81%
    01:00 -2°C° 0.1 mm 7 mps 750 mmHg 81%
    02:00 -2°C° 0.1 mm 7 mps 749 mmHg 81%
    03:00 -2°C° 0.1 mm 6 mps 749 mmHg 81%
    04:00 -2°C° 0 mm 6 mps 749 mmHg 81%
    05:00 -2°C° 0 mm 6 mps 749 mmHg 81%
    06:00 -2°C° 0 mm 6 mps 749 mmHg 81%
    07:00 -2°C° 0 mm 7 mps 749 mmHg 81%
    08:00 -2°C° 0 mm 7 mps 750 mmHg 81%
    09:00 -2°C° 0 mm 7 mps 750 mmHg 81%
    10:00 -1°C° 0 mm 7 mps 750 mmHg 79%
    11:00 0°C° 0 mm 7 mps 751 mmHg 77%
    12:00 +2°C° 0 mm 7 mps 751 mmHg 74%
    13:00 +2°C° 0 mm 7 mps 751 mmHg 75%
    14:00 +2°C° 0 mm 6 mps 751 mmHg 76%
    15:00 +2°C° 0 mm 6 mps 751 mmHg 76%
    16:00 +1°C° 0 mm 6 mps 752 mmHg 78%
    17:00 -1°C° 0 mm 6 mps 752 mmHg 80%
    18:00 -2°C° 0 mm 6 mps 753 mmHg 82%
    19:00 -1°C° 0 mm 7 mps 753 mmHg 82%
    20:00 -1°C° 0 mm 7 mps 754 mmHg 82%
    21:00 -1°C° 0 mm 8 mps 754 mmHg 83%
    22:00 -1°C° 0 mm 7 mps 754 mmHg 83%
    23:00 -1°C° 0 mm 7 mps 754 mmHg 84%

    24 January, Thursday

    Time Temperature Precipitation Wind Pressure Humidity
    00:00 -1°C° 0 mm 7 mps 754 mmHg 85%
    01:00 0°C° 0 mm 8 mps 754 mmHg 82%
    02:00 0°C° 0 mm 10 mps 754 mmHg 80%
    03:00 -1°C° 0 mm 11 mps 754 mmHg 77%
    04:00 0°C° 0 mm 10 mps 754 mmHg 80%
    05:00 0°C° 0 mm 10 mps 755 mmHg 82%
    06:00 0°C° 0 mm 9 mps 756 mmHg 85%
    07:00 0°C° 0 mm 9 mps 757 mmHg 85%
    08:00 -1°C° 0 mm 8 mps 758 mmHg 85%
    09:00 -1°C° 0 mm 7 mps 759 mmHg 86%
    10:00 -1°C° 0 mm 7 mps 760 mmHg 83%
    11:00 +1°C° 0 mm 6 mps 760 mmHg 81%
    12:00 +2°C° 0 mm 5 mps 761 mmHg 78%
    13:00 +2°C° 0 mm 5 mps 761 mmHg 79%
    14:00 +3°C° 0 mm 4 mps 761 mmHg 80%
    15:00 +3°C° 0 mm 4 mps 761 mmHg 81%
    16:00 +1°C° 0 mm 4 mps 761 mmHg 84%
    17:00 0°C° 0 mm 4 mps 761 mmHg 86%
    18:00 -1°C° 0 mm 4 mps 762 mmHg 89%
    19:00 -1°C° 0 mm 4 mps 762 mmHg 89%
    20:00 -1°C° 0 mm 4 mps 762 mmHg 89%
    21:00 -1°C° 0 mm 5 mps 762 mmHg 90%
    22:00 -1°C° 0 mm 5 mps 762 mmHg 89%
    23:00 -2°C° 0 mm 5 mps 762 mmHg 89%
    Show more